Regional Weather Roundup
Issued by NWS Sioux Falls, SD

Home | Current Version | Previous Version | Text Only | Print | Product List | Glossary On
Versions: 1 2 3 4 5 6 7 8 9 10 11 12 13 14 15 16 17 18 19 20 21 22 23 24 25 26 27 28 29 30 31 32 33 34 35 36 37 38 39 40 41 42 43 44 45 46 47 48 49 50
944
ASUS43 KFSD 240102
RWRFSD

WEATHER ROUNDUP FOR SE SOUTH DAKOTA/SW MINNESOTA/NW IOWA
NATIONAL WEATHER SERVICE SIOUX FALLS SD
700 PM CST THU FEB 23 2017

NOTE: "FAIR" INDICATES FEW OR NO CLOUDS BELOW 12,000 FEET WITH NO
SIGNIFICANT WEATHER AND OR OBSTRUCTIONS TO VISIBILITY.


SDZ038>040-050-052>070-240200-
SOUTHEAST SOUTH DAKOTA

CITY           SKY/WX    TMP DP  RH WIND       PRES   REMARKS
CHAMBERLAIN    CLOUDY    30  26  84 N16G28    29.90R WCI  18
HURON          CLOUDY    29  22  75 NE23      29.90S WCI  15
MADISON        CLOUDY    27  27 100 NE24G31   29.82R WCI  12
MITCHELL       CLOUDY    30  25  81 N25       29.86R WCI  16
SIOUX FALLS    LGT SNOW  30  27  88 NE21G30   29.82R FOG     WCI  17
WINNER         LGT SNOW  28  24  85 N22       29.88R FOG     WCI  14
YANKTON        CLOUDY    30  27  86 N14G22    29.80R VSB 1/2 WCI  20
$$

MNZ071-072-080-081-089-090-097-098-240200-
SOUTHWEST MINNESOTA

CITY           SKY/WX    TMP DP  RH WIND       PRES   REMARKS
FAIRMONT       LGT SNOW  30  29  96 NE21      29.79S VSB 3/4 WCI  17
JACKSON          N/A     30  27  86 NE25G31   29.78F WCI  16
LUVERNE        CLOUDY    30  27  86 NE22G31   29.79R WCI  17
MARSHALL       CLOUDY    30  25  81 NE16      29.88F WCI  19
MONTEVIDEO     CLOUDY    30  27  86 NE17      29.95F WCI  18
PIPESTONE      CLOUDY    28  23  80 NE25G33   29.80R WCI  14
REDWOOD FALLS  CLOUDY    31  23  72 NE13G18   29.89F WCI  21
TRACY          CLOUDY    30  26  86 N22G28    29.85F WCI  17
WINDOM         CLOUDY    28  27  93 N22G29    29.79F WCI  15
WORTHINGTON    CLOUDY    28  25  88 NE25G31   29.79R WCI  13
$$

IAZ001>003-012>014-020>022-031-032-NEZ013-014-SDZ071-240200-
NORTHWEST IOWA

CITY           SKY/WX    TMP DP  RH WIND       PRES   REMARKS
CHEROKEE       TSTM      31  31  99 NE16G25   29.75R WCI  20
DENISON        HVY RAIN  34  34 100 NE23G29   29.64R WCI  22
ESTHERVILLE    LGT SNOW  29  29 100 NE29      29.74F FOG     WCI  14
LE MARS        MIX PCPN  30  30 100 NE20G30   29.75R VSB 3/4 WCI  18
ORANGE CITY    LGT SNOW  30  28  93 NE13G23   29.75S VSB 3/4 WCI  20
SHELDON        MIX PCPN  28  30 100 MISG      29.76R VSB 1/4
SIOUX CITY     LGT SNOW  33  30  88 NE22G32   29.69F VSB 1   WCI  21
SPENCER        LGT SNOW  31  29  92 NE25G33   29.76R FOG     WCI  17
STORM LAKE     MIX PCPN  30  30 100 NE28G43   29.68F VSB 1   WCI  16
$$

ABBREVIATIONS USED IN REMARKS
   TC - TEMPERATURE IN CELSIUS
  WCI - WIND CHILL INDEX
   HX - HEAT INDEX
  VSB - VISIBILITY





USA.gov is the U.S. government's official web portal to all federal, state and local government web resources and services.